Location: Claremont
(33.9858°S, 18.4575°E)
Time: 11:46:44
(UTC+00:00)

H-2A R/B - Pass Details

Date: 03 March 2021
Orbit: 732 x 837 km, 98.2° (Epoch: 21 April)

Event Time Altitude Azimuth Distance (km) Brightness Sun altitude
Rises 17:38:16 0° 157° (SSE) 3,279 5.1 -4.6°
Reaches altitude 10° 17:40:46 10° 148° (SSE) 2,360 4.3 -5.1°
Maximum altitude 17:45:33 36° 82° (E) 1,250 2.6 -6.1°
Drops below altitude 10° 17:50:24 10° 16° (NNE) 2,395 4.3 -7.1°
Sets 17:52:56 0° 7° (N) 3,332 5.1 -7.6°
